Regional Weather Roundup
Issued by NWS

Home | Current Version | Previous Version | Graphics & Text | Print | Product List | Glossary On
Versions: 1 2 3 4 5 6 7 8 9 10 11 12 13 14 15 16 17 18 19 20 21 22 23 24 25 26 27 28 29 30 31 32 33 34 35 36 37 38 39 40 41 42 43 44 45 46 47 48 49 50
000
ASUS43 KMKX 121600
RWRWI

WISCONSIN REGIONAL WEATHER ROUNDUP
NATIONAL WEATHER SERVICE MILWAUKEE/SULLIVAN WI
1000 AM CST FRI FEB 12 2016

NOTE: "FAIR" INDICATES FEW OR NO CLOUDS BELOW 12,000 FEET WITH NO
SIGNIFICANT WEATHER AND/OR OBSTRUCTIONS TO VISIBILITY.

WIZ001-002-006>008-014>016-023>028-121700-
NORTHWEST WISCONSIN

CITY           SKY/WX    TMP DP  RH WIND       PRES   REMARKS
SUPERIOR ARPT  SUNNY      0 -11  58 N18G25    30.38R WCI -21
ASHLAND        PTSUNNY    2  -6  69 NW18      30.30R HAZE    WCI -19
HAYWARD        MIX PCPN   2  -9  60 NW12G22   30.27R WCI -15
SIREN          MOSUNNY    4 -10  52 NW17G28   30.33R WCI -15
CUMBERLAND     CLOUDY     5  -4  66 NW16G22   30.26R HAZE    WCI -14
RICE LAKE      PTSUNNY    6  -4  63 NW15G24   30.28R WCI -12
CHETEK         PTSUNNY    7  -3  62 MISG      30.26R
LADYSMITH      PTSUNNY    6  -5  59 NW17G24   30.23R WCI -13
EAU CLAIRE     NOT AVBL
MENOMONIE      PTSUNNY   12   0  59 NW16G22   30.29R WCI  -5
NEW RICHMOND   SUNNY      7  -5  57 NW23G30   30.31R WCI -14
OSCEOLA        SUNNY      7  -4  58 NW20G25   30.37R WCI -12
$$

WIZ003>005-009-010-017-018-121700-
NORTH CENTRAL WISCONSIN

CITY           SKY/WX    TMP DP  RH WIND       PRES   REMARKS
MANITOWISH WTR CLOUDY     2  -3  77 NW13G20   30.10R HAZE    WCI -15
ARBOR VITAE    SUNNY      6  -6  58 NW15G25   30.08R WCI -12
WOODRUFF       SUNNY      6  -6  58 NW15G25   30.08R WCI -12
RHINELANDER    PTSUNNY    5  -7  57 NW16G29   30.07R WCI -14
EAGLE RIVER    PTSUNNY    5  -5  62 NW14G28   30.04R HAZE    WCI -12
LAND O LAKES   CLOUDY     6  -3  66 NW12G24   30.05R HAZE    WCI  -9
PHILLIPS       CLOUDY     2  -7  65 NW14G20   30.14R WCI -16
TOMAHAWK       PTSUNNY    5  -5  63 NW14G21   30.12R WCI -12
MEDFORD        MOSUNNY    5  -5  63 NW20      30.12S HAZE    WCI -15
MERRILL        PTSUNNY    6  -5  60 N20G26    30.12R WCI -14
$$

WIZ029-030-035-036-043>047-121700-
CENTRAL WISCONSIN

CITY           SKY/WX    TMP DP  RH WIND       PRES   REMARKS
WAUSAU         SUNNY      9  -4  55 NW15G25   30.12R WCI  -8
MOSINEE        MOSUNNY    7  -2  66 NW21G29   30.14R WCI -13
MARSHFIELD     SUNNY      8  -4  58 NW22      30.15R WCI -12
STEVENS POINT  SUNNY      9  -4  54 NW9G20    30.14R WCI  -4
WAUPACA        SUNNY     16   0  49 NW12G23   30.14S WCI   2
WAUTOMA        NOT AVBL
WISC RAPIDS    SUNNY     11  -5  48 N18G26    30.18R WCI  -7
CAMP DOUGLAS   NOT AVBL
$$

WIZ011>013-019>022-031-037>040-048>050-121700-
NORTHEAST WISCONSIN

CITY           SKY/WX    TMP DP  RH WIND       PRES   REMARKS
ANTIGO         MOSUNNY    6  -4  64 NW18G26   30.06R WCI -14
SHAWANO        MOSUNNY   15  -1  49 W14G20    30.11S WCI   0
OCONTO         SUNNY     14  -1  51 NW14G22   30.08S WCI  -1
STURGEON BAY   SUNNY     14   0  52 NW16G23   30.07S WCI  -2
GREEN BAY      SUNNY     13   0  56 NW20      30.10S WCI  -5
MANITOWOC      NOT AVBL
APPLETON       MOSUNNY   12  -2  52 W17G24    30.09S WCI  -5
CLINTONVILLE   SUNNY     14   0  52 NW18      30.11S WCI  -3
OSHKOSH        MOSUNNY   14   1  56 NW18G26   30.12R WCI  -3
$$

WIZ032>034-041-042-053>061-121700-
SOUTHWEST WISCONSIN

CITY           SKY/WX    TMP DP  RH WIND       PRES   REMARKS
LA CROSSE      PTSUNNY   14   3  61 NW18      30.28R WCI  -3
SPARTA         MOSUNNY   14   2  59 NW20G28   30.24R WCI  -3
VIROQUA        CLOUDY    12   4  69 NW18G25   30.20R WCI  -5
BOSCOBEL       FLURRIES  17   7  64 W12       30.26R WCI   4
PRAIRIE DU CHI PTSUNNY   16   5  61 NW17G23   30.27R WCI   0
PLATTEVILLE    PTSUNNY   15  10  80 NW17G28   30.21R WCI  -1
$$

WIZ056-057-062-063-064-067-068-121700-
SOUTH CENTRAL WISCONSIN

CITY           SKY/WX    TMP DP  RH WIND       PRES   REMARKS
REEDSBURG      CLOUDY    14   5  68 W15G21    30.19R WCI  -1
BARABOO/DELLS  CLOUDY    15   4  61 NW13G21   30.17R WCI   0
LONE ROCK      NOT AVBL
MINERAL POINT  FLURRIES  18   9  68 NW15      30.18R WCI   3
MADISON        FLURRIES  15   5  64 NW15G23   30.17R WCI   0
MIDDLETON      CLOUDY    17   8  67 NW16G22   30.18R WCI   1
WATERTOWN      CLOUDY    16   6  66 NW18G25   30.14S WCI  -1
MONROE         MOSUNNY   18   9  68 NW14G21   30.16S WCI   4
JANESVILLE     PTSUNNY   19   9  63 NW18G25   30.17R WCI   4
$$

WIZ051-052-058>065-066-070>072-121700-
SOUTHEAST WISCONSIN

CITY           SKY/WX    TMP DP  RH WIND       PRES   REMARKS
MILWAUKEE      PTSUNNY   17   4  56 NW24G30   30.13S WCI  -1
WAUKESHA       CLOUDY    12   3  67 NW22G30   30.13S HAZE    WCI  -7
MILWAUKEE/TIMM PTSUNNY   16   3  57 NW20      30.13S WCI  -1
RACINE         PTSUNNY   18   3  52 NW20G25   30.14S WCI   2
BURLINGTON     MOSUNNY   17   6  62 NW20G26   30.14S WCI   0
KENOSHA        PTSUNNY   18   7  62 NW17G26   30.13S WCI   3
FOND DU LAC    PTSUNNY   15   3  59 NW21G28   30.12S WCI  -2
SHEBOYGAN      CLOUDY    15   2  56 NW20G28   30.10S WCI  -2
WEST BEND      CLOUDY    16   5  62 W17G24    30.10F WCI   0
JUNEAU         CLOUDY    14   5  67 NW13G18   30.14S WCI   0
$$

LSZ147-162-121700-
LAKE SUPERIOR

STATION/POSITION TIME  TEMP    WIND        PRES    WAVE
                       AIR SEA DIR/SP/G            HT/PER
                 (UTC) (F)     (DEG/KT/KT) (MB)    (FT/S)
DEVILS ISLAND    1500    2     330/ 23/ 27 1027.0R
PORT WING        1500    3     330/ 16/ 22 1026.4
SAXON HARBOR     1500    5                 1023.7R
$$

LMZ867-665-643>646-121700-
LAKE MICHIGAN

STATION/POSITION TIME  TEMP    WIND        PRES    WAVE
                       AIR SEA DIR/SP/G            HT/PER
                 (UTC) (F)     (DEG/KT/KT) (MB)    (FT/S)
CHAMBERS ISLAND  1500   15     250/  7/ 16 1017.6S
ALGOMA LAKESHORE 1511          310/ 10/ 19   N/A
KEWAUNEE LAKESHO 1500   14     290/ 12/ 19 1017.7S
SHEBOYGAN LAKESH 1500   15     290/ 17/ 20 1021.0S
PORT WASHINGTON  1500   17     300/  9/ 20 1021.0S
MILWAUKEE LAKESH 1510   17     310/ 13/ 16   N/A
KENOSHA   LAKESH 1500   17     300/ 17/ 20 1020.3R
$$

TC  - TEMPERATURE IN CELSIUS
VSB - VISIBILITY IN STATUTE MILES
WCI - WIND CHILL INDEX
HX  - HEAT INDEX




USA.gov is the U.S. government's official web portal to all federal, state and local government web resources and services.